OCO 2

Last updated on Sun Apr 12 2026 00:03:41 GMT+0000 (Coordinated Universal Time)

1 40059U 14035A 26101.47705684 .00000381 00000+0 94434-4 0 9991 2 40059 98.1971 43.8045 0001626 87.5933 272.5451 14.57134968626333
UTC large
Height (km)
Speed (km/s)
/
Latitude / Longitude
Inclination (degrees)
Orbital Period (minutes)
Azimuth
Elevation
Range (km)
Doppler Factor

Next 0 passes for location: London (51.5072 / 0.1276)

Sorry there are no passes over London.
OCO 2